Skip Page Navigation
NASA JPL Caltech
NASA Logo - Jet Propulsion Laboratory + View the NASA Portal
+ Center for Near-Earth Object Studies
JPL Home Earth Solar System Stars & Galaxies Technology
JPL Solar System Dynamics
BODIES ORBITS EPHEMERIDES TOOLS PHYSICAL DATA DISCOVERY FAQ SITE MAP
JPL Small-Body Database Browser
Search: [ help ]  
18180 Irenesun (2000 QB30)
Classification: Main-belt Asteroid          SPK-ID: 2018180
Ephemeris | Orbit Diagram | Orbital Elements | Mission Design | Physical Parameters | Discovery Circumstances | Close-Approach Data ]

[ hide orbit diagram ]

For accurate long-term ephemerides, please instead use our Horizons system.This orbit viewer was implemented using two-body methods, and hence should not be used for determining accurate long-term trajectories (over several years or decades) or planetary encounter circumstances.


[ revert to old Java-based viewer ]

Orbital Elements at Epoch 2459000.5 (2020-May-31.0) TDB
Reference: JPL 25 (heliocentric ecliptic J2000)
 Element Value Uncertainty (1-sigma)   Units 
e .1589900601448371 3.2477e-08  
a 2.210744787465479 6.6894e-09 au
q 1.859258340741458 7.3075e-08 au
i 4.513271737998532 3.991e-06 deg
node 53.3988748719646 4.2921e-05 deg
peri 218.5854319289427 4.4706e-05 deg
M 63.76018004512889 1.3696e-05 deg
tp 2458787.855881360374
(2019-Oct-31.35588136)
4.5419e-05 TDB
period 1200.622122711738
3.29
5.4493e-06
1.492e-08
d
yr
n .2998445499129235 1.3609e-09 deg/d
Q 2.562231234189501 7.7529e-09 au
  Orbit Determination Parameters
   # obs. used (total)      1658  
   data-arc span      8877 days (24.30 yr)  
   first obs. used      1996-04-15  
   last obs. used      2020-08-04  
   planetary ephem.      DE431  
   SB-pert. ephem.      SB431-N16  
   condition code      0  
   norm. resid. RMS      .49969  
   source      ORB  
   producer      Otto Matic  
   solution date      2020-Aug-25 01:18:13  

Additional Information
 Earth MOID = .845697 au 
 Jupiter MOID = 2.53331 au 
 T_jup = 3.637 
[ hide covariance matrix ]
Orbital Elements at Epoch 2456650.5 (2013-Dec-24.0) TDB
Reference: JPL 25 (heliocentric ecliptic J2000)
 Element Value Uncertainty (1-sigma)   Units 
e .1595527507336069 3.2547e-08  
q 1.857888910253635 7.325e-08 au
tp 2456385.845721027213
(2013-Apr-03.34572103)
4.3709e-05 TDB
node 53.47363809880893 4.2894e-05 deg
peri 218.4911176836439 4.4658e-05 deg
i 4.515102371732051 3.9919e-06 deg
  Orbit Determination Parameters
   # obs. used (total)      1658  
   data-arc span      8877 days (24.30 yr)  
   first obs. used      1996-04-15  
   last obs. used      2020-08-04  
   planetary ephem.      DE431  
   SB-pert. ephem.      SB431-N16  
   condition code      0  
   norm. resid. RMS      .49969  
   source      ORB  
   producer      Otto Matic  
   solution date      2020-Aug-25 01:18:13  

Additional Information
 Jupiter MOID = 2.53331 au 
 T_jup = 3.637 
Orbit Covariance (6×6)
  e q tp node peri i
e 1.05927974418834E-15 -2.377303243132679E-15 -3.740038056921823E-13 -1.017461006838527E-14 -7.74912457609032E-14 2.982771179997543E-16
q -2.377303243132679E-15 5.36551545834437E-15 8.298360948346713E-13 2.274814828235771E-14 1.721310448365257E-13 -6.004314138726784E-16
tp -3.740038056921823E-13 8.298360948346713E-13 1.910467820132395E-9 4.950512864734795E-12 5.513939048875513E-10 2.450215247800544E-13
node -1.017461006838527E-14 2.274814828235771E-14 4.950512864734795E-12 1.839882128899756E-9 -1.832315702511169E-9 -2.605353533709537E-11
peri -7.74912457609032E-14 1.721310448365257E-13 5.513939048875513E-10 -1.832315702511169E-9 1.994295747917924E-9 2.604405384473953E-11
i 2.982771179997543E-16 -6.004314138726784E-16 2.450215247800544E-13 -2.605353533709537E-11 2.604405384473953E-11 1.593530837789849E-11

Ephemeris | Orbit Diagram | Orbital Elements | Mission Design | Physical Parameters | Discovery Circumstances | Close-Approach Data ]

Physical Parameter Table
Parameter Symbol Value Units Sigma Reference Notes
absolute magnitude H 14.8   n/a MPO474007  
diameter diameter 3.104 km 0.129 urn:nasa:pds:neowise_diameters_albedos::2.0[mainbelt] (http://adsabs.harvard.edu/abs/2011ApJ...741...68M)  
rotation period rot_per 10.306 h n/a LCDB (Rev. 2019-August); Warner et al., 2009 Result based on less than full coverage, so that the period may be wrong by 30 percent or so.
Published Reference List:
[Waszczak, A.; Chang, C.-K.; Ofeck, E.O.; Laher, F.; et al. (2015) Astron. J. 150, A75.]
geometric albedo albedo 0.291   0.055 urn:nasa:pds:neowise_diameters_albedos::2.0[mainbelt] (http://adsabs.harvard.edu/abs/2011ApJ...741...68M)  

18180 Irenesun           Discovered 2000 Aug. 25 by the Lincoln Laboratory Near-Earth Asteroid Research Team at Socorro.
Irene Yuan Sun (b. 1986) was awarded second place in the 2003 Intel International Science and Engineering Fair for her medicine and health project. She attends the Ben Davis High School, Indianapolis, Indiana, U.S.A.
NOTE: some special characters may not display properly (any characters within {} are an attempt to place the proper accent above a character)
Reference: 20040614/MPCPages.arcLast Updated: 2009-12-11

[ show close-approach data ]
Alternate Designations
 2000 QB30 = 1999 CR43 
Ephemeris | Orbit Diagram | Orbital Elements | Mission Design | Physical Parameters | Discovery Circumstances | Close-Approach Data ]
ABOUT SSD CREDITS/AWARDS PRIVACY/COPYRIGHT GLOSSARY LINKS
FirstGov 2020-Oct-30 08:17 UT
(server date/time)  
NASA Home Page
Site Manager:   Ryan S. Park
Webmaster  Alan B. Chamberlin